Regional Weather Roundup
Issued by NWS Kansas City/Pleasant Hill, MO

Home | Current Version | Previous Version | Text Only | Print | Product List | Glossary On
Versions: 1 2 3 4 5 6 7 8 9 10 11 12 13 14 15 16 17 18 19 20 21 22 23 24 25 26 27 28 29 30 31 32 33 34 35 36 37 38 39 40 41 42 43 44 45 46 47 48 49 50
000
ASUS43 KEAX 221511
RWREAX

WEATHER ROUNDUP FOR EASTERN KANSAS AND NORTHWEST MISSOURI
NATIONAL WEATHER SERVICE KANSAS CITY/PLEASANT HILL MO
1000 AM CDT MON SEP 22 2014

KSZ040-057-103>105-MOZ028-029-037-043-221600-
...KANSAS CITY METROPOLITAN AREA...

CITY           SKY/WX    TMP DP  RH WIND       PRES   REMARKS
K.C. INTL      MOSUNNY   62  52  69 CALM      30.34R
K.C. DOWNTOWN  SUNNY     63  52  67 CALM      30.33S
LEES SUMMIT    SUNNY     63  51  65 CALM      30.34R
OLATHE - IXD   SUNNY     63  51  65 E6        30.34R
OLATHE - OJC   SUNNY     63  52  67 VRB5      30.32S
LAWRENCE       SUNNY     60  52  74 CALM      30.34R

$$

MOZ001>008-011>017-020>025-030>033-038>040-044>046-053-054-221600-
...NORTHERN AND CENTRAL MISSOURI...

CITY           SKY/WX    TMP DP  RH WIND       PRES   REMARKS
ST. JOSEPH     SUNNY     60  53  77 S3        30.34R
MOSBY          SUNNY     61  52  72 CALM      30.33S
WARRENSBURG    SUNNY     63  52  67 CALM      30.33R
WHITEMAN AFB   SUNNY     62  53  73 NE3       30.32S
CLINTON        SUNNY     63  55  77 CALM      30.33R
SEDALIA        SUNNY     63  53  70 E3        30.33R
WARSAW         NOT AVBL
MARSHALL       SUNNY     66  55  68 E3        30.34S
CHILLICOTHE      N/A     63  53  70 E3        30.34S
MOBERLY        SUNNY     63  50  63 NE3       30.34R
KIRKSVILLE     SUNNY     61  51  70 E5        30.34R

$$

MOZ041-047>049-056>058-063>065-088>090-097-221600-
...EASTERN AND SOUTHERN MISSOURI...

CITY           SKY/WX    TMP DP  RH WIND       PRES   REMARKS
ST. LOUIS INTL SUNNY     63  51  65 CALM      30.31R
SPIRIT OF STL  SUNNY     61  52  72 CALM      30.31R
COLUMBIA       SUNNY     62  53  72 NE6       30.33R
JEFFERSON CITY SUNNY     61  52  72 W3        30.33R
MEXICO         SUNNY     63  57  82 CALM      30.34R
HANNIBAL       SUNNY     64  48  55 N5        30.34R
ROLLA          SUNNY     61  52  72 CALM      30.31R
LEBANON        SUNNY     64  52  63 N7        30.32S
OSAGE BEACH    SUNNY     61  50  67 NE7       30.32S
SPRINGFIELD    SUNNY     62  51  67 NE10      30.31S
BRANSON        SUNNY     66  52  59 MISG      30.32R
NEVADA         SUNNY     64  54  68 E3        30.35R
JOPLIN         SUNNY     63  52  67 E7        30.32F
WEST PLAINS    SUNNY     63  51  65 N8        30.31R

$$

IAZ060-094-KSZ022-034>040-054-083-096-NEZ052-066-093-221600-
...KANSAS...SOUTHEAST NEBRASKA AND IOWA...

CITY           SKY/WX    TMP DP  RH WIND       PRES   REMARKS
TOPEKA         SUNNY     62  55  77 E7        30.33S
MANHATTAN      SUNNY     61  51  70 CALM      30.33S
EMPORIA        SUNNY     61  54  77 VRB5      30.33R
CHANUTE        SUNNY     64  52  64 SE3       30.33R
WICHITA        MOSUNNY   67  47  48 SE8       30.33R
OMAHA          MOSUNNY   60  50  69 S7        30.32S
LINCOLN        SUNNY     58  51  78 S5        30.33S
FALLS CITY     SUNNY     61  53  75 E6        30.32S
LAMONI         SUNNY     60  53  77 CALM      30.33S
DES MOINES     SUNNY     62  51  67 CALM      30.33R

$$




USA.gov is the U.S. government's official web portal to all federal, state and local government web resources and services.